Location: �terpigny
(49.8910°N, 2.9249°E)
Time: 19:30:28
(UTC+00:00)

Cosmos 1626 Rocket - Pass Details

Date: 24 October 2021
Orbit: 603 x 630 km, 82.5° (Epoch: 07 December)

Event Time Altitude Azimuth Distance (km) Brightness Sun altitude
Rises 18:18:33 0° 347° (NNW) 2,872 7.2 -16.6°
Reaches altitude 10° 18:20:47 10° 344° (NNW) 1,963 6.3 -16.9°
Maximum altitude 18:25:04 62° 264° (W) 684 4.0 -17.6°
Drops below altitude 10° 18:29:19 10° 184° (S) 1,947 6.1 -18.3°
Sets 18:31:32 0° 181° (S) 2,848 6.9 -18.7°
